Weather History for Wichita, KS

Change the Weather History Date:

Saturday, November 5, 2011

  Actual Average Record
Temperature  
Mean Temperature 51 °F 51 °F  
Max Temperature 62 °F 62 °F 81 °F (1924)
Min Temperature 40 °F 39 °F 16 °F (1982)
Degree Days  
Heating Degree Days 14 15  
Month to date heating degree days 81 69  
Since 1 July heating degree days 306 355  
Cooling Degree Days 0 0  
Month to date cooling degree days 0 0  
Year to date cooling degree days 2310 1684  
Growing Degree Days 2 (Base 50)    
Moisture  
Dew Point 37 °F    
Average Humidity 57    
Maximum Humidity 70    
Minimum Humidity 44    
Precipitation  
Precipitation 0.00 in 0.06 in 0.83 in (1951)
Month to date precipitation 0.17 0.29  
Year to date precipitation 19.22 30.30  
Snow  
Snow 0.00 in 0.00 in 7.50 in (1951)
Month to date snowfall T 0.0  
Since 1 July snowfall T 0.1  
Since 1 September snowfall T 0.1  
Snow Depth 0.00 in    
Sea Level Pressure  
Sea Level Pressure 29.85 in    
Wind  
Wind Speed 20 mph (SSE)    
Max Wind Speed 35 mph    
Max Gust Speed 40 mph    
Visibility 10 miles    
Events      
T = Trace of Precipitation, MM = Missing Value Source: NWS Daily Summary

Daily Weather History Graph

Daily Weather History Graph

Search for Another Location

Airport:

Trip Planner

Search our weather history database for the weather conditions in past years. The results will help you decide how hot, cold, wet, or windy it might be!

Date:

Astronomy

Nov. 05, 2011 Rise Set
Actual Time 7:58 AM CDT 6:27 PM CDT
Civil Twilight 7:31 AM CDT 6:54 PM CDT
Nautical Twilight 7:00 AM CDT 7:25 PM CDT
Astronomical Twilight 6:29 AM CDT 7:56 PM CDT
Moon 3:41 PM CDT (11/5) 3:14 AM CDT (11/5)
Length of Visible Light 11h 23m
Length of Day
10h 28m
Waxing Gibbous, 78% of the Moon is Illuminated
Nov 5
Waxing Gibbous
Nov 10
Full
Nov 18
Last Quarter
Nov 25
New
Dec 2
First Quarter

Hourly Weather History & Observations

Time (CDT) Temp. Windchill Dew Point Humidity Pressure Visibility Wind Dir Wind Speed Gust Speed Precip Events Conditions
12:53 AM 42.1 °F 37.1 °F 32.0 °F 67% 30.01 in 10.0 mi SSE 8.1 mph - N/A   Scattered Clouds
1:53 AM 41.0 °F 35.8 °F 32.0 °F 70% 30.00 in 10.0 mi SSE 8.1 mph - N/A   Scattered Clouds
2:53 AM 41.0 °F 36.4 °F 32.0 °F 70% 30.00 in 10.0 mi SSE 6.9 mph - N/A   Scattered Clouds
3:53 AM 42.1 °F 36.1 °F 32.0 °F 67% 29.98 in 10.0 mi SSE 10.4 mph - N/A   Partly Cloudy
4:53 AM 43.0 °F 36.0 °F 32.0 °F 65% 29.96 in 10.0 mi SSE 13.8 mph - N/A   Partly Cloudy
5:53 AM 43.0 °F 36.0 °F 32.0 °F 65% 29.95 in 10.0 mi SSE 13.8 mph - N/A   Clear
6:53 AM 43.0 °F 34.8 °F 32.0 °F 65% 29.95 in 10.0 mi SSE 18.4 mph - N/A   Partly Cloudy
7:53 AM 42.8 °F 35.1 °F 30.2 °F 61% 29.94 in 10.0 mi SSE 16.1 mph - N/A   Mostly Cloudy
8:53 AM 44.1 °F 36.5 °F 32.0 °F 63% 29.95 in 10.0 mi SSE 17.3 mph - N/A   Mostly Cloudy
10:53 AM 51.1 °F - 39.0 °F 63% 29.91 in 10.0 mi South 26.5 mph 35.7 mph N/A   Mostly Cloudy
11:53 AM 57.0 °F - 37.9 °F 49% 29.87 in 10.0 mi South 24.2 mph 38.0 mph N/A   Mostly Cloudy
12:53 PM 59.0 °F - 37.9 °F 46% 29.84 in 10.0 mi South 27.6 mph 38.0 mph N/A   Mostly Cloudy
1:53 PM 60.8 °F - 39.2 °F 45% 29.80 in 10.0 mi SSE 26.5 mph 35.7 mph N/A   Mostly Cloudy
2:53 PM 62.6 °F - 41.0 °F 45% 29.78 in 10.0 mi South 24.2 mph 32.2 mph N/A   Mostly Cloudy
3:53 PM 60.1 °F - 39.9 °F 47% 29.74 in 10.0 mi SSE 27.6 mph 35.7 mph N/A   Mostly Cloudy
4:53 PM 60.1 °F - 39.9 °F 47% 29.69 in 10.0 mi SSE 27.6 mph 35.7 mph N/A   Mostly Cloudy
5:53 PM 57.9 °F - 39.9 °F 51% 29.70 in 10.0 mi South 26.5 mph 35.7 mph N/A   Scattered Clouds
6:53 PM 55.0 °F - 41.0 °F 59% 29.72 in 10.0 mi SSE 20.7 mph 32.2 mph N/A   Scattered Clouds
7:53 PM 54.0 °F - 41.0 °F 62% 29.72 in 10.0 mi SSE 21.9 mph 31.1 mph N/A   Partly Cloudy
8:53 PM 53.1 °F - 42.1 °F 66% 29.75 in 10.0 mi SSE 16.1 mph - N/A   Partly Cloudy
9:53 PM 53.1 °F - 42.1 °F 66% 29.75 in 10.0 mi SSE 18.4 mph - N/A   Scattered Clouds
10:53 PM 53.6 °F - 42.8 °F 67% 29.75 in 10.0 mi South 20.7 mph 27.6 mph N/A   Mostly Cloudy
11:53 PM 54.0 °F - 43.0 °F 66% 29.73 in 10.0 mi South 23.0 mph 32.2 mph N/A   Mostly Cloudy